GFSFLT2_prec_precacc_303.txt.gz
Total_Precipitation_Accumulation
6.15 3.91 3.41 3.65 2.55 2.45 3.42 3.42 2.90 1.95 1.53 1.33 1.52 1.22 1.09 1.00 0.80 0.78 0.84 0.89 0.94 0.94 0.98 0.99 0.85 0.78 0.66 0.56 0.58 0.89 1.31 1.46
7.16 5.24 3.29 1.83 2.56 2.48 2.47 3.32 3.85 2.53 2.01 1.86 1.55 1.48 1.33 0.98 0.78 0.81 1.05 1.01 0.78 0.71 0.73 0.79 0.76 0.67 0.66 0.64 0.67 1.09 1.43 1.84
6.73 6.46 4.08 2.83 2.64 2.64 2.23 2.07 3.02 3.85 2.60 2.19 1.90 1.20 1.29 1.05 1.08 1.13 1.19 1.10 1.08 1.05 0.93 0.91 0.85 0.78 0.85 1.11 1.01 0.74 1.12 1.64
3.03 3.35 3.10 2.47 3.23 3.29 2.23 2.08 1.62 2.88 3.11 2.43 1.85 1.21 1.22 1.20 1.06 1.18 1.30 1.17 1.25 1.22 1.24 1.30 1.32 1.08 1.05 1.06 0.94 1.15 1.37 1.79
1.31 1.59 1.54 1.63 2.15 1.83 1.88 1.86 1.72 1.88 2.85 2.29 1.64 1.24 1.16 1.49 1.02 1.13 1.55 1.64 1.30 1.11 0.97 1.08 1.22 1.49 1.29 1.14 0.98 0.98 1.09 1.82
1.09 0.93 1.16 1.36 1.62 1.59 1.28 1.43 1.67 1.68 2.40 2.25 1.60 1.31 1.01 1.22 1.02 1.09 1.78 1.81 1.43 1.11 0.82 0.92 1.17 1.36 1.15 1.16 1.07 1.10 1.12 1.56
1.04 0.89 0.95 1.04 0.96 1.02 0.95 0.92 1.27 1.62 1.82 2.16 1.99 1.38 0.92 1.05 1.11 1.32 1.67 1.79 2.01 1.51 1.15 1.16 1.22 1.39 1.23 0.94 0.85 1.23 1.40 1.45
1.04 1.31 0.99 1.13 0.89 0.86 0.87 0.82 1.11 1.52 1.73 2.02 2.49 1.95 1.67 1.53 1.63 1.85 1.99 1.95 1.89 1.87 1.45 1.41 1.55 1.45 1.47 1.00 0.70 1.05 1.57 1.74
1.14 1.65 1.27 1.21 0.85 0.95 0.97 1.01 0.97 1.05 1.29 1.92 2.41 2.59 2.41 2.18 2.09 2.22 2.38 2.40 2.03 1.84 1.67 1.61 1.53 1.64 1.52 1.35 1.02 0.94 1.13 2.06
1.32 1.42 1.03 1.22 1.05 1.22 1.60 1.00 0.72 0.81 0.98 1.30 1.77 2.11 2.10 1.91 2.05 2.10 2.97 3.09 2.45 2.32 2.07 1.94 1.74 1.57 1.58 1.44 1.07 1.07 0.96 1.63
0.89 0.98 1.03 1.51 1.91 2.01 1.59 1.03 0.73 0.91 0.83 0.89 1.18 1.85 1.88 1.77 1.91 2.00 2.04 2.58 2.47 2.36 2.13 1.93 1.98 1.84 1.58 1.71 1.56 1.10 1.07 1.25
0.76 0.84 1.34 2.10 2.03 1.40 1.26 1.24 1.17 1.18 0.85 0.88 1.10 1.75 1.59 2.08 2.37 2.20 2.72 2.38 2.20 2.27 2.12 1.88 1.58 1.61 1.75 1.69 1.64 1.42 1.30 1.34
0.70 0.86 0.81 0.98 1.07 1.18 1.20 1.11 1.20 1.05 0.80 0.87 1.10 1.66 1.81 1.71 2.14 2.28 2.50 2.67 2.59 2.06 2.14 2.48 1.87 1.48 2.12 2.63 1.95 1.87 1.71 1.66
0.41 0.34 0.23 0.33 0.54 0.68 0.75 0.75 0.70 0.89 1.08 0.99 1.44 1.63 1.86 1.79 2.07 2.47 2.22 2.73 2.92 2.73 2.12 2.14 2.23 2.14 2.14 2.25 2.42 2.53 2.09 2.33
0.09 0.16 0.14 0.26 0.39 0.80 1.41 1.81 1.88 2.07 1.56 1.41 1.64 1.57 1.81 1.93 2.13 2.28 2.66 2.88 3.09 3.36 2.75 2.18 2.29 2.24 2.16 2.74 2.54 2.38 2.02 2.08
0.13 0.13 0.22 0.33 0.62 0.88 1.23 1.19 1.19 1.12 1.39 1.61 1.81 2.09 2.11 2.22 2.32 3.13 2.94 3.44 3.44 3.15 3.65 2.86 2.31 2.16 2.42 2.50 2.50 2.19 2.09 1.99
0.10 0.15 0.34 0.50 0.79 0.74 1.16 1.57 1.56 1.36 1.54 2.04 2.69 2.24 2.38 2.84 2.79 2.74 3.15 3.54 4.08 3.97 3.84 4.20 3.27 2.35 1.92 2.32 2.38 2.30 2.21 2.32
0.12 0.18 0.23 0.50 0.71 1.30 1.93 1.90 1.86 1.97 1.83 1.69 2.16 2.92 2.55 2.85 3.13 2.67 2.54 2.67 3.39 3.75 4.51 4.59 4.64 3.79 2.71 2.15 2.30 2.62 2.73 2.58
0.21 0.16 0.21 0.29 0.55 1.08 1.53 2.22 2.75 2.42 2.02 2.07 2.11 3.00 3.55 3.00 2.77 3.22 3.15 2.83 2.90 3.47 3.61 4.09 4.60 4.85 4.40 3.37 2.89 2.42 2.43 2.56
0.47 0.31 0.40 0.43 0.63 1.06 1.41 1.87 2.32 3.25 3.43 3.31 3.23 2.92 3.64 4.86 5.04 3.51 3.14 3.74 3.59 3.41 3.67 3.69 3.81 4.22 4.42 4.53 3.83 3.27 2.63 3.01

GFSFLT2_prec_precacc_306.txt.gz
Total_Precipitation_Accumulation
6.15 3.91 3.41 3.65 2.55 2.45 3.42 3.42 2.90 1.95 1.53 1.33 1.52 1.22 1.09 1.00 0.80 0.78 0.84 0.89 0.94 0.94 0.98 0.99 0.85 0.78 0.66 0.56 0.58 0.89 1.31 1.46
7.16 5.24 3.29 1.83 2.56 2.48 2.47 3.32 3.85 2.53 2.01 1.86 1.55 1.48 1.33 0.98 0.78 0.81 1.05 1.01 0.78 0.71 0.73 0.79 0.76 0.67 0.66 0.64 0.67 1.09 1.43 1.84
6.73 6.46 4.08 2.83 2.64 2.64 2.23 2.07 3.02 3.85 2.60 2.19 1.90 1.20 1.29 1.05 1.08 1.13 1.19 1.10 1.08 1.05 0.93 0.91 0.85 0.78 0.85 1.11 1.01 0.74 1.12 1.64
3.03 3.35 3.10 2.47 3.23 3.29 2.23 2.08 1.62 2.88 3.11 2.43 1.85 1.21 1.22 1.20 1.06 1.18 1.30 1.17 1.25 1.22 1.24 1.30 1.32 1.08 1.05 1.06 0.94 1.15 1.37 1.79
1.31 1.59 1.54 1.63 2.15 1.83 1.88 1.86 1.72 1.88 2.85 2.29 1.64 1.24 1.16 1.49 1.02 1.13 1.55 1.64 1.30 1.11 0.97 1.08 1.22 1.49 1.29 1.14 0.98 0.98 1.09 1.82
1.09 0.93 1.16 1.36 1.62 1.59 1.28 1.43 1.67 1.68 2.40 2.25 1.60 1.31 1.01 1.22 1.02 1.09 1.78 1.81 1.43 1.11 0.82 0.92 1.17 1.36 1.15 1.16 1.07 1.10 1.12 1.56
1.04 0.89 0.95 1.04 0.96 1.02 0.95 0.92 1.27 1.62 1.82 2.16 1.99 1.38 0.92 1.05 1.11 1.32 1.67 1.79 2.01 1.51 1.15 1.16 1.22 1.39 1.23 0.94 0.85 1.23 1.40 1.45
1.04 1.31 0.99 1.13 0.89 0.86 0.87 0.82 1.11 1.52 1.73 2.02 2.49 1.95 1.67 1.53 1.63 1.85 1.99 1.95 1.89 1.87 1.45 1.41 1.55 1.45 1.47 1.00 0.70 1.05 1.57 1.74
1.14 1.65 1.27 1.21 0.85 0.95 0.97 1.01 0.97 1.05 1.29 1.92 2.41 2.59 2.41 2.18 2.09 2.22 2.38 2.40 2.03 1.84 1.67 1.61 1.53 1.64 1.52 1.35 1.02 0.94 1.13 2.06
1.32 1.42 1.03 1.22 1.05 1.22 1.60 1.00 0.72 0.81 0.98 1.30 1.77 2.11 2.10 1.91 2.05 2.10 2.97 3.09 2.45 2.32 2.07 1.94 1.75 1.57 1.58 1.44 1.07 1.07 0.96 1.63
0.89 0.98 1.03 1.51 1.91 2.01 1.59 1.03 0.73 0.91 0.83 0.89 1.18 1.85 1.88 1.77 1.91 2.00 2.04 2.58 2.47 2.36 2.13 1.93 1.98 1.84 1.58 1.71 1.56 1.10 1.07 1.25
0.76 0.84 1.34 2.10 2.03 1.40 1.26 1.24 1.17 1.18 0.85 0.88 1.10 1.75 1.59 2.08 2.37 2.20 2.72 2.38 2.20 2.27 2.12 1.88 1.58 1.62 1.75 1.69 1.64 1.42 1.30 1.34
0.70 0.86 0.81 0.98 1.07 1.18 1.20 1.11 1.20 1.05 0.80 0.87 1.10 1.66 1.81 1.71 2.14 2.28 2.50 2.67 2.59 2.06 2.14 2.48 1.87 1.49 2.13 2.63 1.95 1.87 1.71 1.66
0.41 0.34 0.23 0.33 0.54 0.68 0.75 0.75 0.70 0.89 1.08 0.99 1.44 1.63 1.86 1.79 2.07 2.47 2.22 2.73 2.92 2.73 2.12 2.15 2.23 2.15 2.16 2.26 2.42 2.53 2.09 2.33
0.09 0.16 0.14 0.26 0.39 0.80 1.41 1.81 1.88 2.07 1.56 1.41 1.64 1.57 1.81 1.93 2.13 2.28 2.66 2.88 3.09 3.36 2.76 2.19 2.31 2.25 2.16 2.79 2.60 2.39 2.02 2.08
0.13 0.13 0.22 0.33 0.62 0.88 1.23 1.19 1.19 1.12 1.39 1.61 1.81 2.09 2.11 2.22 2.32 3.13 2.94 3.44 3.44 3.15 3.66 2.87 2.34 2.17 2.43 2.51 2.55 2.26 2.15 2.01
0.10 0.15 0.34 0.50 0.79 0.74 1.16 1.57 1.56 1.36 1.54 2.04 2.69 2.24 2.38 2.84 2.79 2.74 3.15 3.54 4.08 3.97 3.84 4.22 3.29 2.37 1.94 2.35 2.41 2.32 2.26 2.37
0.12 0.18 0.23 0.50 0.71 1.30 1.93 1.90 1.86 1.97 1.83 1.69 2.16 2.92 2.55 2.85 3.13 2.67 2.54 2.67 3.39 3.75 4.52 4.61 4.66 3.80 2.72 2.18 2.37 2.71 2.78 2.62
0.21 0.16 0.21 0.29 0.55 1.08 1.53 2.22 2.75 2.42 2.02 2.07 2.11 3.00 3.55 3.00 2.77 3.22 3.15 2.83 2.90 3.47 3.62 4.11 4.62 4.88 4.43 3.40 2.97 2.53 2.50 2.61
0.47 0.31 0.40 0.43 0.63 1.06 1.41 1.87 2.32 3.25 3.43 3.31 3.23 2.92 3.64 4.86 5.04 3.51 3.14 3.74 3.59 3.41 3.69 3.70 3.82 4.24 4.46 4.59 3.94 3.35 2.69 3.09

GFSFLT2_prec_precacc_309.txt.gz
Total_Precipitation_Accumulation
6.15 3.91 3.41 3.65 2.55 2.45 3.42 3.42 2.90 1.95 1.53 1.33 1.52 1.22 1.09 1.00 0.80 0.78 0.84 0.89 0.94 0.94 0.98 0.99 0.85 0.78 0.66 0.56 0.58 0.89 1.31 1.46
7.16 5.24 3.29 1.83 2.56 2.48 2.47 3.32 3.85 2.53 2.01 1.86 1.55 1.48 1.33 0.98 0.78 0.81 1.05 1.01 0.78 0.71 0.73 0.79 0.76 0.67 0.66 0.64 0.67 1.09 1.43 1.84
6.73 6.46 4.08 2.83 2.64 2.64 2.23 2.07 3.02 3.85 2.60 2.19 1.90 1.20 1.29 1.05 1.08 1.13 1.19 1.10 1.08 1.05 0.93 0.91 0.85 0.78 0.85 1.11 1.01 0.74 1.12 1.64
3.03 3.35 3.10 2.47 3.23 3.29 2.23 2.08 1.62 2.88 3.11 2.43 1.85 1.21 1.22 1.20 1.06 1.18 1.30 1.17 1.25 1.22 1.24 1.30 1.32 1.08 1.05 1.06 0.94 1.15 1.37 1.79
1.31 1.59 1.54 1.63 2.15 1.83 1.88 1.86 1.72 1.88 2.85 2.29 1.64 1.24 1.16 1.49 1.02 1.13 1.55 1.64 1.30 1.11 0.97 1.08 1.22 1.49 1.29 1.14 0.98 0.98 1.09 1.82
1.09 0.93 1.16 1.36 1.62 1.59 1.28 1.43 1.67 1.68 2.40 2.25 1.60 1.31 1.01 1.22 1.02 1.09 1.78 1.81 1.43 1.11 0.82 0.92 1.17 1.36 1.15 1.16 1.07 1.10 1.12 1.56
1.04 0.89 0.95 1.04 0.96 1.02 0.95 0.92 1.27 1.62 1.82 2.16 1.99 1.38 0.92 1.05 1.11 1.32 1.67 1.79 2.01 1.51 1.15 1.16 1.22 1.39 1.23 0.94 0.85 1.23 1.40 1.45
1.04 1.31 0.99 1.13 0.89 0.86 0.87 0.82 1.11 1.52 1.73 2.02 2.49 1.95 1.67 1.53 1.63 1.85 1.99 1.95 1.89 1.87 1.45 1.41 1.55 1.45 1.47 1.00 0.70 1.05 1.57 1.74
1.14 1.65 1.27 1.21 0.85 0.95 0.97 1.01 0.97 1.05 1.29 1.92 2.41 2.59 2.41 2.18 2.09 2.22 2.38 2.40 2.03 1.84 1.67 1.61 1.53 1.64 1.52 1.35 1.02 0.94 1.13 2.06
1.32 1.42 1.03 1.22 1.05 1.22 1.60 1.00 0.72 0.81 0.98 1.30 1.77 2.11 2.10 1.91 2.05 2.10 2.97 3.09 2.45 2.32 2.07 1.94 1.75 1.57 1.58 1.44 1.07 1.07 0.96 1.63
0.89 0.98 1.03 1.51 1.91 2.01 1.59 1.03 0.73 0.91 0.83 0.89 1.18 1.85 1.88 1.77 1.91 2.00 2.04 2.58 2.47 2.36 2.13 1.93 1.98 1.84 1.58 1.71 1.56 1.10 1.07 1.25
0.76 0.84 1.34 2.10 2.03 1.40 1.26 1.24 1.17 1.18 0.85 0.88 1.10 1.75 1.59 2.08 2.37 2.20 2.72 2.38 2.20 2.27 2.12 1.89 1.59 1.62 1.75 1.69 1.64 1.42 1.30 1.34
0.70 0.86 0.81 0.98 1.07 1.18 1.20 1.11 1.20 1.05 0.80 0.87 1.10 1.66 1.81 1.71 2.14 2.28 2.50 2.67 2.59 2.06 2.14 2.49 1.88 1.49 2.13 2.63 1.95 1.87 1.71 1.66
0.41 0.34 0.23 0.33 0.54 0.68 0.75 0.75 0.70 0.89 1.08 0.99 1.44 1.63 1.86 1.79 2.07 2.47 2.22 2.73 2.92 2.73 2.12 2.16 2.24 2.15 2.17 2.27 2.42 2.53 2.09 2.33
0.09 0.16 0.14 0.26 0.39 0.80 1.41 1.81 1.88 2.07 1.56 1.41 1.64 1.57 1.81 1.93 2.13 2.28 2.66 2.88 3.09 3.36 2.76 2.21 2.32 2.25 2.17 2.82 2.63 2.40 2.03 2.08
0.13 0.13 0.22 0.33 0.62 0.88 1.23 1.19 1.19 1.12 1.39 1.61 1.81 2.09 2.11 2.22 2.32 3.13 2.94 3.44 3.44 3.15 3.66 2.88 2.36 2.18 2.43 2.52 2.58 2.29 2.19 2.01
0.10 0.15 0.34 0.50 0.79 0.74 1.16 1.57 1.56 1.36 1.54 2.04 2.69 2.24 2.38 2.84 2.79 2.74 3.15 3.54 4.08 3.97 3.85 4.23 3.30 2.39 1.96 2.36 2.41 2.33 2.28 2.40
0.12 0.18 0.23 0.50 0.71 1.30 1.93 1.90 1.86 1.97 1.83 1.69 2.16 2.92 2.55 2.85 3.13 2.67 2.54 2.67 3.39 3.75 4.53 4.62 4.67 3.81 2.74 2.20 2.41 2.76 2.81 2.65
0.21 0.16 0.21 0.29 0.55 1.08 1.53 2.22 2.75 2.42 2.02 2.07 2.11 3.00 3.55 3.00 2.77 3.22 3.15 2.83 2.90 3.48 3.63 4.12 4.63 4.90 4.46 3.44 3.01 2.59 2.55 2.65
0.47 0.31 0.40 0.43 0.63 1.06 1.41 1.87 2.32 3.25 3.43 3.31 3.23 2.92 3.64 4.86 5.04 3.51 3.14 3.74 3.59 3.42 3.69 3.71 3.84 4.27 4.52 4.68 4.02 3.41 2.74 3.13

GFSFLT2_prec_precacc_312.txt.gz
Total_Precipitation_Accumulation
6.15 3.91 3.41 3.65 2.55 2.45 3.42 3.42 2.90 1.95 1.53 1.33 1.52 1.22 1.09 1.00 0.80 0.78 0.84 0.89 0.94 0.94 0.98 0.99 0.85 0.78 0.66 0.56 0.58 0.89 1.31 1.46
7.16 5.24 3.29 1.83 2.56 2.48 2.47 3.32 3.85 2.53 2.01 1.86 1.55 1.48 1.33 0.98 0.78 0.81 1.05 1.01 0.78 0.71 0.73 0.79 0.76 0.67 0.66 0.64 0.67 1.09 1.43 1.84
6.73 6.46 4.08 2.83 2.64 2.64 2.23 2.07 3.02 3.85 2.60 2.19 1.90 1.20 1.29 1.05 1.08 1.13 1.19 1.10 1.08 1.05 0.93 0.91 0.85 0.78 0.85 1.11 1.01 0.74 1.12 1.64
3.03 3.35 3.10 2.47 3.23 3.29 2.23 2.08 1.62 2.88 3.11 2.43 1.85 1.21 1.22 1.20 1.06 1.18 1.30 1.17 1.25 1.22 1.24 1.30 1.32 1.08 1.05 1.06 0.94 1.15 1.37 1.79
1.31 1.59 1.54 1.63 2.15 1.83 1.88 1.86 1.72 1.88 2.85 2.29 1.64 1.24 1.16 1.49 1.02 1.13 1.55 1.64 1.30 1.11 0.97 1.08 1.22 1.49 1.29 1.14 0.98 0.98 1.09 1.82
1.09 0.93 1.16 1.36 1.62 1.59 1.28 1.43 1.67 1.68 2.40 2.25 1.60 1.31 1.01 1.22 1.02 1.09 1.78 1.81 1.43 1.11 0.82 0.92 1.17 1.36 1.15 1.16 1.07 1.10 1.12 1.56
1.04 0.89 0.95 1.04 0.96 1.02 0.95 0.92 1.27 1.62 1.82 2.16 1.99 1.38 0.92 1.05 1.11 1.32 1.67 1.79 2.01 1.51 1.15 1.16 1.22 1.39 1.23 0.94 0.85 1.23 1.40 1.45
1.04 1.31 0.99 1.13 0.89 0.86 0.87 0.82 1.11 1.52 1.73 2.02 2.49 1.95 1.67 1.53 1.63 1.85 1.99 1.95 1.89 1.88 1.45 1.41 1.55 1.45 1.47 1.00 0.70 1.05 1.57 1.74
1.14 1.65 1.27 1.21 0.85 0.95 0.97 1.01 0.97 1.05 1.29 1.92 2.41 2.59 2.41 2.18 2.09 2.22 2.38 2.40 2.04 1.84 1.67 1.61 1.53 1.64 1.52 1.35 1.02 0.94 1.13 2.06
1.32 1.42 1.03 1.22 1.05 1.22 1.60 1.00 0.72 0.81 0.98 1.30 1.77 2.11 2.10 1.91 2.05 2.10 2.97 3.09 2.45 2.32 2.07 1.94 1.75 1.57 1.58 1.44 1.07 1.07 0.96 1.63
0.89 0.98 1.03 1.51 1.91 2.01 1.59 1.03 0.73 0.91 0.83 0.89 1.18 1.85 1.88 1.77 1.91 2.00 2.04 2.59 2.47 2.36 2.14 1.93 1.98 1.84 1.58 1.71 1.56 1.10 1.07 1.25
0.76 0.84 1.34 2.10 2.03 1.40 1.26 1.24 1.17 1.18 0.85 0.88 1.10 1.75 1.59 2.08 2.37 2.20 2.72 2.38 2.20 2.27 2.12 1.89 1.59 1.62 1.75 1.69 1.64 1.42 1.30 1.34
0.70 0.86 0.81 0.98 1.07 1.18 1.20 1.11 1.20 1.05 0.80 0.87 1.10 1.66 1.81 1.71 2.14 2.28 2.50 2.67 2.60 2.07 2.15 2.49 1.88 1.49 2.14 2.63 1.95 1.87 1.71 1.66
0.41 0.34 0.23 0.33 0.54 0.68 0.75 0.75 0.70 0.89 1.08 0.99 1.44 1.63 1.86 1.79 2.07 2.47 2.22 2.73 2.92 2.73 2.12 2.16 2.24 2.15 2.19 2.27 2.42 2.53 2.09 2.33
0.09 0.16 0.14 0.26 0.39 0.80 1.41 1.81 1.88 2.07 1.56 1.41 1.64 1.57 1.81 1.93 2.13 2.28 2.66 2.89 3.09 3.36 2.76 2.21 2.34 2.26 2.17 2.85 2.64 2.40 2.03 2.08
0.13 0.13 0.22 0.33 0.62 0.88 1.23 1.19 1.19 1.12 1.39 1.61 1.81 2.09 2.11 2.22 2.32 3.13 2.94 3.44 3.44 3.15 3.66 2.89 2.39 2.20 2.44 2.53 2.60 2.32 2.20 2.02
0.10 0.15 0.34 0.50 0.79 0.74 1.16 1.57 1.56 1.36 1.54 2.04 2.69 2.24 2.38 2.84 2.79 2.74 3.15 3.54 4.08 3.98 3.86 4.24 3.32 2.41 1.97 2.37 2.42 2.33 2.29 2.43
0.12 0.18 0.23 0.50 0.71 1.30 1.93 1.90 1.86 1.97 1.83 1.69 2.16 2.92 2.55 2.85 3.13 2.67 2.54 2.67 3.39 3.76 4.53 4.64 4.69 3.83 2.75 2.22 2.44 2.78 2.82 2.66
0.21 0.16 0.21 0.29 0.55 1.08 1.53 2.22 2.75 2.42 2.02 2.07 2.11 3.00 3.55 3.00 2.77 3.22 3.15 2.83 2.90 3.49 3.65 4.14 4.65 4.93 4.49 3.48 3.04 2.62 2.57 2.67
0.47 0.31 0.40 0.43 0.63 1.06 1.41 1.87 2.32 3.25 3.43 3.31 3.23 2.92 3.64 4.86 5.04 3.51 3.14 3.74 3.60 3.43 3.71 3.73 3.87 4.32 4.58 4.75 4.08 3.44 2.77 3.16

GFSFLT2_prec_precacc_315.txt.gz
Total_Precipitation_Accumulation
6.15 3.91 3.41 3.65 2.55 2.45 3.42 3.42 2.90 1.95 1.53 1.33 1.52 1.22 1.09 1.00 0.80 0.78 0.84 0.89 0.94 0.94 0.98 0.99 0.85 0.78 0.66 0.56 0.58 0.89 1.31 1.46
7.16 5.24 3.29 1.83 2.56 2.48 2.47 3.32 3.85 2.53 2.01 1.86 1.55 1.48 1.33 0.98 0.78 0.81 1.05 1.01 0.78 0.71 0.73 0.79 0.76 0.67 0.66 0.64 0.67 1.09 1.43 1.84
6.73 6.46 4.08 2.83 2.64 2.64 2.23 2.07 3.02 3.85 2.60 2.19 1.90 1.20 1.29 1.05 1.08 1.13 1.19 1.10 1.08 1.05 0.93 0.91 0.85 0.78 0.85 1.11 1.01 0.74 1.12 1.64
3.03 3.35 3.10 2.47 3.23 3.29 2.23 2.08 1.62 2.88 3.11 2.43 1.85 1.21 1.22 1.20 1.06 1.18 1.30 1.17 1.25 1.22 1.24 1.30 1.32 1.08 1.05 1.06 0.94 1.15 1.37 1.79
1.31 1.59 1.54 1.63 2.15 1.83 1.88 1.86 1.72 1.88 2.85 2.29 1.64 1.24 1.16 1.49 1.02 1.13 1.55 1.64 1.30 1.11 0.97 1.08 1.22 1.49 1.29 1.14 0.98 0.98 1.09 1.82
1.09 0.93 1.16 1.36 1.62 1.59 1.28 1.43 1.67 1.68 2.40 2.25 1.60 1.31 1.01 1.22 1.02 1.09 1.78 1.81 1.43 1.11 0.82 0.92 1.17 1.36 1.15 1.16 1.07 1.10 1.12 1.56
1.04 0.89 0.95 1.04 0.96 1.02 0.95 0.92 1.27 1.62 1.82 2.16 1.99 1.38 0.92 1.05 1.11 1.32 1.67 1.79 2.01 1.51 1.15 1.16 1.22 1.39 1.23 0.94 0.85 1.23 1.40 1.45
1.04 1.31 0.99 1.13 0.89 0.86 0.87 0.82 1.11 1.52 1.73 2.02 2.49 1.95 1.67 1.53 1.63 1.85 1.99 1.95 1.89 1.88 1.45 1.41 1.55 1.45 1.47 1.00 0.70 1.05 1.57 1.74
1.14 1.65 1.27 1.21 0.85 0.95 0.97 1.01 0.97 1.05 1.29 1.92 2.41 2.59 2.41 2.18 2.09 2.22 2.38 2.40 2.04 1.84 1.67 1.61 1.53 1.64 1.52 1.35 1.02 0.94 1.13 2.06
1.32 1.42 1.03 1.22 1.05 1.22 1.60 1.00 0.72 0.81 0.98 1.30 1.77 2.11 2.10 1.91 2.05 2.10 2.97 3.09 2.45 2.32 2.07 1.94 1.75 1.57 1.58 1.44 1.07 1.07 0.96 1.63
0.89 0.98 1.03 1.51 1.91 2.01 1.59 1.03 0.73 0.91 0.83 0.89 1.18 1.85 1.88 1.77 1.91 2.00 2.04 2.59 2.47 2.36 2.14 1.93 1.98 1.84 1.58 1.71 1.56 1.10 1.07 1.25
0.76 0.84 1.34 2.10 2.03 1.40 1.26 1.24 1.17 1.18 0.85 0.88 1.10 1.75 1.59 2.08 2.37 2.20 2.72 2.38 2.20 2.27 2.12 1.89 1.59 1.62 1.75 1.69 1.64 1.42 1.30 1.34
0.70 0.86 0.81 0.98 1.07 1.18 1.20 1.11 1.20 1.05 0.80 0.87 1.10 1.66 1.81 1.71 2.14 2.28 2.50 2.67 2.60 2.07 2.15 2.49 1.88 1.49 2.14 2.63 1.95 1.87 1.71 1.66
0.41 0.34 0.23 0.33 0.54 0.68 0.75 0.75 0.70 0.89 1.08 0.99 1.44 1.63 1.86 1.79 2.07 2.47 2.22 2.73 2.92 2.73 2.12 2.16 2.24 2.15 2.20 2.28 2.42 2.53 2.09 2.33
0.09 0.16 0.14 0.26 0.39 0.80 1.41 1.81 1.88 2.07 1.56 1.41 1.64 1.57 1.81 1.93 2.13 2.28 2.66 2.89 3.09 3.36 2.77 2.22 2.35 2.26 2.18 2.87 2.65 2.40 2.03 2.08
0.13 0.13 0.22 0.33 0.62 0.88 1.23 1.19 1.19 1.12 1.39 1.61 1.81 2.09 2.11 2.22 2.32 3.13 2.94 3.44 3.44 3.15 3.67 2.90 2.41 2.22 2.45 2.54 2.62 2.33 2.21 2.03
0.10 0.15 0.34 0.50 0.79 0.74 1.16 1.57 1.56 1.36 1.54 2.04 2.69 2.24 2.38 2.84 2.79 2.74 3.15 3.54 4.08 3.98 3.86 4.25 3.35 2.45 1.99 2.39 2.44 2.35 2.30 2.45
0.12 0.18 0.23 0.50 0.71 1.30 1.93 1.90 1.86 1.97 1.83 1.69 2.16 2.92 2.55 2.85 3.13 2.67 2.54 2.67 3.39 3.76 4.54 4.66 4.72 3.87 2.79 2.25 2.47 2.81 2.84 2.68
0.21 0.16 0.21 0.29 0.55 1.08 1.53 2.22 2.75 2.42 2.02 2.07 2.11 3.00 3.55 3.00 2.77 3.22 3.15 2.83 2.90 3.50 3.67 4.17 4.69 4.98 4.54 3.53 3.08 2.66 2.60 2.69
0.47 0.31 0.40 0.43 0.63 1.06 1.41 1.87 2.32 3.25 3.43 3.31 3.23 2.92 3.64 4.86 5.04 3.51 3.14 3.74 3.61 3.45 3.75 3.78 3.93 4.39 4.66 4.82 4.13 3.48 2.81 3.19